Regional Weather Roundup
Issued by NWS

Home | Current Version | Previous Version | Graphics & Text | Print | Product List | Glossary On
Versions: 1 2 3 4 5 6 7 8 9 10 11 12 13 14 15 16 17 18 19 20 21 22 23 24 25 26 27 28 29 30 31 32 33 34 35 36 37 38 39 40 41 42 43 44 45 46 47 48 49 50
000
ASUS43 KLSX 311307
RWRMO

WEATHER SUMMARY FOR MISSOURI
NATIONAL WEATHER SERVICE SPRINGFIELD MO
800 AM CDT FRI JUL 31 2015

NOTE: "FAIR" INDICATES FEW OR NO CLOUDS BELOW 12,000 FEET WITH NO
       SIGNIFICANT WEATHER AND/OR OBSTRUCTIONS TO VISIBILITY.
       CURRENT SKY AND/OR WEATHER CONDITIONS ARE NOT AVAILABLE FOR
       CHILLICOTHE AND FARMINGTON.

MOZ001>031-035>038-043-044-053-054-311400-
...NORTHERN AND WESTERN MISSOURI...

CITY           SKY/WX    TMP DP  RH WIND       PRES   REMARKS
KANSAS CTY INT MOSUNNY   70  64  81 SW5       30.18R
KANSAS C DTWN  SUNNY     72  66  81 CALM      30.18R
LEE`S SUMMIT   SUNNY     70  64  81 SW6       30.19R
ST JOSEPH      SUNNY     68  67  96 CALM      30.19R
CHILLICOTHE      N/A     73  66  78 SW6       30.17S
KIRKSVILLE     PTSUNNY   71  63  75 W7        30.16R

$$
MOZ066>068-077>081-088>096-101>105-311400-
...SOUTHWEST MISSOURI...

CITY           SKY/WX    TMP DP  RH WIND       PRES   REMARKS
SPRINGFIELD    MOSUNNY   73  65  75 S3        30.19R
JOPLIN         MOSUNNY   74  66  76 CALM      30.19R

$$
MOZ032>034-039>042-045>050-055>058-069>072-311400-
...CENTRAL MISSOURI...

CITY           SKY/WX    TMP DP  RH WIND       PRES   REMARKS
COLUMBIA       SUNNY     74  66  76 NW3       30.17S
JEFFERSON CITY SUNNY     70  67  90 CALM      30.17R
ROLLA          SUNNY     71  65  81 CALM      30.17S
SEDALIA        SUNNY     74  63  68 SW3       30.19R
WHITEMAN AFB   SUNNY     70  64  81 W2        30.17R
WARRENSBURG    SUNNY     66  64  94 CALM      30.18R
OSAGE BEACH    CLOUDY    64  63  94 CALM      30.18S VSB<1/4

$$
MOZ051-052-059>065-311400-
...EAST CENTRAL MISSOURI...

CITY           SKY/WX    TMP DP  RH WIND       PRES   REMARKS
ST LOUIS INTL  SUNNY     78  65  63 W8        30.14S
SPIRIT OF STL  SUNNY     73  69  87 CALM      30.13S
ST CHARLES     SUNNY     74  67  78 SW5       30.13R

$$
MOZ072>076-082>087-097>100-106>115-311400-
...SOUTH CENTRAL AND SOUTHEAST MISSOURI...

CITY           SKY/WX    TMP DP  RH WIND       PRES   REMARKS
CAPE GIRARDEAU SUNNY     75  66  73 CALM      30.12S
FARMINGTON     SUNNY     70  66  88 CALM      30.20S
POPLAR BLUFF   SUNNY     73  66  78 CALM      30.12R
WEST PLAINS    SUNNY     73  64  73 CALM      30.19S

$$


USA.gov is the U.S. government's official web portal to all federal, state and local government web resources and services.